{"data":{"norad_id":54185,"intl_designator":"2022-141AE","name":"STARLINK-5235","alt_names":[],"object_type":"PAYLOAD","status":"ACTIVE","operator":null,"country":"US","launch_date":"2022-10-28","launch_site_code":"AFWTR","launch_vehicle":null,"mission":null,"orbit_class":"UNKNOWN","rcs_meters":null,"size_class":null,"mass_kg":null,"dimensions":null,"purposes":["comms"],"wikipedia_slug":null,"has_3d_model":false,"image_url":null,"decayed_at":null,"tle_current":{"epoch":"2026-05-24T22:44:08.029824Z","epoch_age_seconds":75772,"freshness":"FRESH","line1":"1 54185U 22141AE  26144.94731516 -.00000865  00000+0 -36287-4 0  9996","line2":"2 54185  53.2142  21.5226 0001585  92.0247 268.0927 15.08840236197371","mean_motion":15.08840236,"eccentricity":0.0001585,"inclination_deg":53.2142,"raan_deg":21.5226,"arg_perigee_deg":92.0247,"mean_anomaly_deg":268.0927,"bstar":-3.6287e-5,"rev_number":19737,"period_min":95.437539750232,"perigee_km":538.6461836793,"apogee_km":540.83915153393,"semimajor_km":6917.8796676066,"source":"CELESTRAK","updated_at":"2026-05-25T13:38:17.681717Z"}}}